星链-1555 (STARLINK-1555 )

导读 | 星芒AI

STARLINK-1555 是 SpaceX Starlink 项目中的一颗低轨通信卫星,属于第55组发射批次。该卫星旨在为全球用户提供高速互联网服务,支持偏远地区的网络接入。它运行在约550公里高的近地轨道,采用先进推进系统和激光通信技术,以提高网络效率和稳定性。Starlink 卫星群由数千颗卫星组成,致力于构建全球覆盖的宽带网络。

基本信息
目录编号:
46032
目录名称:
STARLINK-1555
国际标识:
2020-055F
轨道中心:
EARTH
卫星名称:
星链-1555
卫星全名:
星链-1555 (STARLINK-1555 )
卫星状态:
在轨 (已飞行1957 天)
发射日期:
2020-08-07 UTC
国别 :
美国 (US)
星等 :
--
轨道信息
数据来源 国际轨道数据
星历时间: 2025-12-15T11:53:53+0800
22小时前
查看轨道信息
半长轴: 6925.383km
偏心率: 0.0001498
轨道倾角: 53.053°
近地点辐角 95.117°
升交点赤经 146.073°
平近点角 264.999°
近地点: 546.21km
远地点: 548.286km
周期: 95.593分钟
每日圈数: 15.063889
详细信息
固有亮度:
5
最大亮度:
2.5
卫星平台:
Starlink V1.0
覆盖范围:
全球
运营商:
太空探索技术公司
运营商所在国:
美国
制造商(研发单位):
太空探索技术公司
制造商所在国:
美国
使用方式:
暂无
卫星简介
星链(Starlink)计划是由太空探索技术公司(SpaceX)提出的一个巨型低轨卫星互联网星座项目,计划在2019年至2024年间在太空搭建由约1.2万颗卫星组成的“星链”网络,其中1584颗将部署在地球上空550千米处的近地轨道,并从2020年开始工作。该卫星仍在工作。
2D轨道图
3D轨道图
轨道高度分析图
轨道倾角分析图
轨道综合分析图
查看轨道综合分析图